Location: White Mills Observatory
(37.5374°N, 86.0303°W)
Time: 17:35:55
(UTC-04:00)

Amateur Radio Satellites - All Passes

Search period start: 22 August 2014 17:05
Search period end: 23 August 2014 17:05
Location: White Mills Observatory, 37.5374°N, 86.0303°W

Satellite Date Start Highest point End Downlink Frequencies (MHz)
Time Altitude Azimuth
Uosat F 22 Aug 17:06:23 17:11:23 72° 74° (ENE) 17:16:23 435.120 FM
TMSAT-1 22 Aug 17:39:17 17:41:06 12° 270° (W) 17:42:56 436.925 FM
PANSAT 22 Aug 17:44:14 17:46:56 18° 172° (S) 17:49:39 not established
Hamsat 22 Aug 17:48:37 17:50:52 14° 66° (ENE) 17:53:09 145.90 MHz
MaSat-1 22 Aug 17:50:13 17:52:50 14° 311° (NW) 17:55:33 437.345 MHz
OPAL 22 Aug 17:57:40 18:02:48 56° 103° (ESE) 18:07:55 ?
JAS-2 22 Aug 17:59:48 18:05:13 28° 68° (ENE) 18:10:09 435.800 - 435.900 CW/SSB, 435.910 FM
AO-7 22 Aug 18:05:43 18:13:34 44° 260° (W) 18:21:28 29.400 - 29.500 MHz
UOSAT-12 22 Aug 18:13:06 18:17:46 62° 243° (WSW) 18:22:21 437.025 FM, 437.400 FM
RS-15 22 Aug 18:36:55 18:47:40 52° 51° (NE) 18:58:46 29.354 - 29.394 USB, Beacon 29.352 USB
Uosat F 22 Aug 18:49:08 18:50:37 11° 269° (W) 18:52:07 435.120 FM
Sapphire 22 Aug 18:56:31 19:00:48 25° 107° (ESE) 19:05:07 437.095 MHz 1200 baud AX-25 AFSK
Hamsat 22 Aug 19:22:19 19:26:24 46° 261° (W) 19:30:34 145.90 MHz
PANSAT 22 Aug 19:23:41 19:26:34 20° 185° (S) 19:29:26 not established
PCSat 22 Aug 19:25:52 19:31:04 51° 112° (ESE) 19:36:18 145.825 MHz
STRAND 1 22 Aug 19:27:56 19:31:12 17° 93° (E) 19:34:27 ?
OPAL 22 Aug 19:37:48 19:41:12 18° 298° (WNW) 19:44:36 ?
JAS-2 22 Aug 19:43:36 19:50:05 45° 260° (W) 19:55:52 435.800 - 435.900 CW/SSB, 435.910 FM
HO-68 22 Aug 20:05:21 20:08:30 13° 54° (NE) 20:11:38 435.675 MHz FM
SO-67 22 Aug 20:07:31 20:10:58 82° 78° (ENE) 20:14:27 435.3500 MHz FM
ISS 22 Aug 20:20:17 20:22:45 19° 27° (NNE) 20:25:13 145.800 FM
Sapphire 22 Aug 20:38:53 20:43:57 41° 303° (WNW) 20:49:05 437.095 MHz 1200 baud AX-25 AFSK
RS-15 22 Aug 20:49:34 20:59:50 45° 251° (WSW) 21:10:31 29.354 - 29.394 USB, Beacon 29.352 USB
PANSAT 22 Aug 21:04:39 21:06:07 12° 197° (SSW) 21:07:34 not established
STRAND 1 22 Aug 21:05:44 21:10:39 50° 288° (WNW) 21:15:32 ?
PCSat 22 Aug 21:10:33 21:14:45 23° 310° (NW) 21:18:59 145.825 MHz
HO-68 22 Aug 21:47:53 21:55:00 76° 72° (ENE) 22:02:09 435.675 MHz FM
Oscar 10/S400 22 Aug 21:56:19 22:17:19 66° 167° (SSE) 07:06:39 145.825 - 145.975 CW/USB, Beacon 145.810 USB
ISS 22 Aug 21:56:26 21:59:43 57° 223° (SW) 22:02:59 145.800 FM
UKube-1 22 Aug 22:04:14 22:08:28 53° 73° (ENE) 22:12:42 145.840 MHz, 145.915 MHz
Oscar 11 22 Aug 22:19:55 22:24:01 44° 73° (ENE) 22:28:08 145.825 FM, Beacon 2401.500 USB
FUNcube-1 22 Aug 22:22:49 22:25:28 17° 67° (ENE) 22:28:08 145.950 - 145.970 MHz USB
AO-40 22 Aug 23:14:34 02:27:09 38° 192° (SSW) 07:52:45 Beacon 2401.320
HO-68 22 Aug 23:38:49 23:43:19 18° 268° (W) 23:47:50 435.675 MHz FM
UKube-1 22 Aug 23:43:17 23:44:57 12° 268° (W) 23:46:37 145.840 MHz, 145.915 MHz
FUNcube-1 22 Aug 23:57:46 00:01:34 35° 262° (W) 00:05:25 145.950 - 145.970 MHz USB
Oscar 11 22 Aug 23:58:06 00:00:24 14° 268° (W) 00:02:43 145.825 FM, Beacon 2401.500 USB
MaSat-1 23 Aug 00:32:03 00:34:22 13° 48° (NE) 00:36:35 437.345 MHz
KITSAT 1 23 Aug 00:37:21 00:42:51 20° 102° (ESE) 00:48:22 435.175 FM
Saudisat 1A 23 Aug 01:37:24 01:41:46 71° 118° (ESE) 01:46:11 436.775 MHz
Oscar 16 23 Aug 01:55:17 01:56:19 11° 90° (E) 01:57:21 437.025 USB, Beacon 2401.1428
MaSat-1 23 Aug 02:07:25 02:12:09 71° 249° (WSW) 02:16:15 437.345 MHz
KITSAT 1 23 Aug 02:29:15 02:37:21 77° 300° (WNW) 02:45:29 435.175 FM
AO-Echo 23 Aug 02:55:55 02:59:13 19° 94° (E) 03:02:29 ?
Oscar 19 23 Aug 02:57:47 03:02:48 47° 99° (E) 03:07:47 437.125 CW, 437.150 USB
ITAMSAT 1 23 Aug 03:10:56 03:15:15 26° 96° (E) 03:19:33 435.822 SSB
Gurwin Techsat 1B 23 Aug 03:18:18 03:20:45 13° 91° (E) 03:23:11 435.225 FM
Saudisat 1A 23 Aug 03:19:31 03:21:50 14° 316° (NW) 03:24:09 436.775 MHz
Uribyol 2 23 Aug 03:22:49 03:27:36 37° 98° (E) 03:32:23 436.500 FM
Oscar 16 23 Aug 03:31:00 03:36:13 79° 285° (WNW) 03:41:24 437.025 USB, Beacon 2401.1428
AO-27 23 Aug 03:37:06 03:42:08 49° 100° (E) 03:47:08 436.795 MHz FM
Sapphire 23 Aug 03:46:30 03:49:46 16° 46° (NE) 03:53:01 437.095 MHz 1200 baud AX-25 AFSK
JAS-1B 23 Aug 04:03:45 04:11:00 67° 101° (E) 04:17:05 435.800 - 435.900 CW/SSB
TMSAT-1 23 Aug 04:13:36 04:18:25 34° 97° (E) 04:23:11 436.925 FM
PCSat 23 Aug 04:16:00 04:20:40 28° 53° (NE) 04:25:17 145.825 MHz
AO-7 23 Aug 04:20:56 04:23:07 11° 89° (E) 04:25:18 29.400 - 29.500 MHz
KITSAT 1 23 Aug 04:28:37 04:34:07 19° 322° (NW) 04:39:40 435.175 FM
AO-Echo 23 Aug 04:33:46 04:38:08 38° 289° (WNW) 04:42:27 ?
Oscar 19 23 Aug 04:38:05 04:41:45 20° 295° (WNW) 04:45:26 437.125 CW, 437.150 USB
ITAMSAT 1 23 Aug 04:50:08 04:54:44 33° 291° (WNW) 04:59:20 435.822 SSB
Gurwin Techsat 1B 23 Aug 04:55:53 05:01:09 68° 286° (WNW) 05:06:24 435.225 FM
Uribyol 2 23 Aug 05:02:44 05:06:51 25° 293° (WNW) 05:10:58 436.500 FM
OPAL 23 Aug 05:10:47 05:15:46 80° 73° (ENE) 05:20:51 ?
Uosat F 23 Aug 05:16:43 05:20:50 25° 96° (E) 05:24:55 435.120 FM
AO-27 23 Aug 05:17:41 05:21:14 19° 296° (WNW) 05:24:47 436.795 MHz FM
Sapphire 23 Aug 05:28:23 05:33:49 79° 245° (WSW) 05:39:13 437.095 MHz 1200 baud AX-25 AFSK
SO-50 23 Aug 05:37:31 05:40:16 16° 109° (ESE) 05:43:03 436.795 FM
TMSAT-1 23 Aug 05:53:46 05:58:10 27° 293° (WNW) 06:02:32 436.925 FM
JAS-1B 23 Aug 05:55:42 06:00:40 20° 303° (WNW) 06:05:10 435.800 - 435.900 CW/SSB
PCSat 23 Aug 05:59:08 06:04:08 39° 250° (WSW) 06:09:06 145.825 MHz
AO-7 23 Aug 06:08:49 06:17:08 73° 106° (ESE) 06:25:22 29.400 - 29.500 MHz
STRAND 1 23 Aug 06:42:04 06:45:51 22° 66° (ENE) 06:49:39 ?
Uosat F 23 Aug 06:55:10 06:59:37 33° 291° (WNW) 07:04:02 435.120 FM
JAS-2 23 Aug 06:55:20 06:59:20 22° 95° (E) 07:03:25 435.800 - 435.900 CW/SSB, 435.910 FM
Hamsat 23 Aug 07:10:03 07:14:03 35° 97° (E) 07:18:01 145.90 MHz
SO-50 23 Aug 07:16:06 07:20:24 47° 305° (NW) 07:24:48 436.795 FM
AO-7 23 Aug 08:02:52 08:09:07 25° 304° (WNW) 08:15:22 29.400 - 29.500 MHz
STRAND 1 23 Aug 08:19:55 08:24:44 42° 261° (W) 08:29:34 ?
UOSAT-12 23 Aug 08:22:08 08:26:39 63° 117° (ESE) 08:31:18 437.025 FM, 437.400 FM
KITSAT 1 23 Aug 08:32:45 08:34:15 11° 25° (NNE) 08:35:46 435.175 FM
JAS-2 23 Aug 08:39:50 08:44:34 37° 290° (WNW) 08:49:26 435.800 - 435.900 CW/SSB, 435.910 FM
Hamsat 23 Aug 08:46:41 08:49:45 19° 292° (WNW) 08:52:47 145.90 MHz
RS-15 23 Aug 08:58:58 09:08:47 38° 107° (ESE) 09:18:22 29.354 - 29.394 USB, Beacon 29.352 USB
SO-67 23 Aug 09:06:10 09:09:35 60° 284° (WNW) 09:12:59 435.3500 MHz FM
HO-68 23 Aug 09:20:17 09:23:54 14° 91° (E) 09:27:30 435.675 MHz FM
UKube-1 23 Aug 09:57:48 09:58:10 10° 91° (E) 09:58:31 145.840 MHz, 145.915 MHz
UOSAT-12 23 Aug 10:04:16 10:07:14 17° 315° (NW) 10:10:15 437.025 FM, 437.400 FM
Saudisat 1A 23 Aug 10:06:13 10:10:12 32° 52° (NE) 10:14:09 436.775 MHz
KITSAT 1 23 Aug 10:24:58 10:32:24 38° 51° (NE) 10:39:47 435.175 FM
HO-68 23 Aug 11:05:11 11:12:22 87° 287° (WNW) 11:19:32 435.675 MHz FM
RS-15 23 Aug 11:09:42 11:20:35 58° 307° (NW) 11:31:20 29.354 - 29.394 USB, Beacon 29.352 USB
UKube-1 23 Aug 11:30:26 11:34:43 61° 286° (WNW) 11:38:59 145.840 MHz, 145.915 MHz
Oscar 11 23 Aug 11:45:18 11:49:39 67° 284° (WNW) 11:53:58 145.825 FM, Beacon 2401.500 USB
Saudisat 1A 23 Aug 11:46:05 11:49:36 24° 248° (WSW) 11:53:06 436.775 MHz
FUNcube-1 23 Aug 11:48:06 11:52:25 47° 99° (E) 11:56:48 145.950 - 145.970 MHz USB
KITSAT 1 23 Aug 12:20:17 12:27:54 48° 250° (WSW) 12:35:30 435.175 FM
HO-68 23 Aug 12:55:05 12:59:04 16° 304° (NW) 13:03:03 435.675 MHz FM
JAS-1B 23 Aug 12:59:41 13:03:06 12° 51° (NE) 13:06:26 435.800 - 435.900 CW/SSB
ISS 23 Aug 13:02:54 13:04:19 12° 128° (SE) 13:05:44 145.800 FM
Oscar 16 23 Aug 13:09:44 13:12:24 14° 62° (ENE) 13:15:04 437.025 USB, Beacon 2401.1428
FUNcube-1 23 Aug 13:25:51 13:28:25 15° 294° (WNW) 13:31:00 145.950 - 145.970 MHz USB
RS-15 23 Aug 13:28:36 13:35:59 20° 336° (NNW) 13:43:24 29.354 - 29.394 USB, Beacon 29.352 USB
AO-Echo 23 Aug 14:06:47 14:10:46 23° 67° (ENE) 14:14:40 ?
SO-50 23 Aug 14:10:35 14:12:45 13° 42° (NE) 14:14:54 436.795 FM
Oscar 19 23 Aug 14:12:42 14:17:42 56° 73° (ENE) 14:22:46 437.125 CW, 437.150 USB
ITAMSAT 1 23 Aug 14:27:04 14:31:41 34° 69° (ENE) 14:36:17 435.822 SSB
Gurwin Techsat 1B 23 Aug 14:37:13 14:40:49 19° 64° (ENE) 14:44:25 435.225 FM
ISS 23 Aug 14:37:23 14:40:40 59° 322° (NW) 14:43:57 145.800 FM
Uribyol 2 23 Aug 14:38:48 14:43:43 46° 71° (ENE) 14:48:38 436.500 FM
JAS-1B 23 Aug 14:42:12 14:51:44 56° 69° (ENE) 15:00:45 435.800 - 435.900 CW/SSB
Oscar 16 23 Aug 14:46:03 14:51:08 67° 258° (WSW) 14:56:18 437.025 USB, Beacon 2401.1428
AO-27 23 Aug 14:53:18 14:58:25 62° 73° (ENE) 15:03:32 436.795 MHz FM
AO-7 23 Aug 15:17:07 15:22:03 17° 52° (NE) 15:26:58 29.400 - 29.500 MHz
TMSAT-1 23 Aug 15:32:25 15:37:25 44° 71° (ENE) 15:42:25 436.925 FM
AO-Echo 23 Aug 15:44:28 15:49:17 39° 262° (W) 15:54:00 ?
RS-15 23 Aug 15:48:25 15:54:39 16° 14° (NNE) 16:00:57 29.354 - 29.394 USB, Beacon 29.352 USB
SO-50 23 Aug 15:49:10 15:53:59 88° 60° (ENE) 15:58:50 436.795 FM
MaSat-1 23 Aug 15:53:13 15:57:51 73° 111° (ESE) 16:02:58 437.345 MHz
Oscar 19 23 Aug 15:54:23 15:57:22 15° 268° (W) 16:00:23 437.125 CW, 437.150 USB
ITAMSAT 1 23 Aug 16:06:52 16:11:10 26° 264° (W) 16:15:29 435.822 SSB
Gurwin Techsat 1B 23 Aug 16:15:11 16:20:20 52° 260° (W) 16:25:32 435.225 FM
ISS 23 Aug 16:16:29 16:17:58 12° 340° (NNW) 16:19:27 145.800 FM
Uribyol 2 23 Aug 16:19:49 16:23:23 19° 266° (W) 16:26:58 436.500 FM
Uosat F 23 Aug 16:28:10 16:32:28 29° 68° (ENE) 16:36:47 435.120 FM
JAS-1B 23 Aug 16:33:19 16:42:14 38° 264° (W) 16:50:54 435.800 - 435.900 CW/SSB
AO-27 23 Aug 16:35:40 16:38:18 14° 268° (W) 16:40:57 436.795 MHz FM
UOSAT-12 23 Aug 16:53:50 16:58:06 33° 52° (NE) 17:02:19 437.025 FM, 437.400 FM
